Voltar ao catálogo

CZ-6A DEB

AtivoPO
NORAD 61299·DEBRIS·🇨🇳 China

Lançado Aug 6, 2024 de Taiyuan Satellite Launch Center

Loading…

Próximas Passagens (próximas 24 horas)

TLE

AtualizadoSource: Space-Track

Época: Sep 14, 2026, 10:44 UTC

1 61299U 24140TL  26257.44767541  .00001536  00000-0  60076-3 0  9995
2 61299  88.9839 262.4683 0022287 249.4987 110.3816 14.28974951106567

Acompanhe CZ-6A DEB em tempo real com AllMySat

Download on the App Store